Simultaneous Nadir Overpasses (SNOs) Predictions

Prediction of SNOs between AQUA and METOP-A Satellite Orbit:

Table of predicted SNOs for the next 14.0 days since TLE Epoch: 10/25/2013
Index Date (AQUA) Time (AQUA) Lat,Lon (AQUA) SZA (AQUA ) Date (METOP-A) Time (METOP-A) Lat,Lon (METOP-A) SZA (METOP-A ) Distance(km) Time Diff (sec)
1 10/26/2013 08:24:20 -73.80,-131.80 93.75 10/26/2013 08:23:10 -73.79,-131.84 93.75 1.12 70
2 10/26/2013 09:13:49 73.86, 35.69 86.33 10/26/2013 09:13:48 73.88, 35.70 86.35 2.20 1
3 10/26/2013 10:03:16 -73.94,-156.83 93.59 10/26/2013 10:04:29 -73.92,-156.87 93.60 2.00 73
4 10/29/2013 03:58:45 -73.79, -65.40 92.81 10/29/2013 03:57:32 -73.80, -65.42 92.80 0.75 73
5 10/29/2013 04:48:13 73.86, 102.09 87.27 10/29/2013 04:48:09 73.88, 102.11 87.29 1.85 4
6 10/29/2013 05:37:40 -73.93, -90.43 92.65 10/29/2013 05:38:50 -73.92, -90.46 92.66 1.32 70
7 10/31/2013 23:33:08 -73.79, 1.02 91.90 10/31/2013 23:31:54 -73.74, 0.86 91.94 6.91 74
8 11/01/2013 00:22:37 73.86, 168.49 88.19 11/01/2013 00:22:31 73.87, 168.49 88.20 0.89 6
9 11/01/2013 01:12:04 -73.93, -24.02 91.74 11/01/2013 01:13:12 -73.92, -24.06 91.74 1.53 68
10 11/03/2013 19:07:30 -73.73, 67.55 91.08 11/03/2013 19:06:17 -73.68, 67.13 91.11 14.17 73
11 11/03/2013 19:57:00 73.86,-125.09 89.07 11/03/2013 19:56:53 73.85,-125.14 89.07 1.40 7
12 11/03/2013 20:46:27 -73.92, 42.40 90.86 11/03/2013 20:47:34 -73.91, 42.33 90.87 2.76 67
13 11/06/2013 14:41:52 -73.72, 133.99 90.23 11/06/2013 14:40:39 -73.66, 133.50 90.28 16.39 73
14 11/06/2013 15:31:22 73.85, -58.67 89.92 11/06/2013 15:31:14 73.88, -58.66 89.95 3.43 8
15 11/06/2013 16:20:49 -73.91, 108.84 90.02 11/06/2013 16:21:55 -73.94, 108.81 89.99 3.42 66




NCC Satellite Simultaneous Nadir Overpasses (SNOs) Prediction Service
